Hourly Data Report for October 12, 2014

All times are specified in Local Standard Time (LST). Add 1 hour to adjust for Daylight Saving Time where and when it is observed.

GJOA HAVEN A
NUNAVUT

68°38'08.000" N
95°51'01.000" W
46.90 m
2302337
71597
YHK

Download Data

Hourly Data (October 2014)
Hourly Data Report for October 12, 2014
Temp Definition
°C
Dew Point Temp Definition
°C
Rel Hum Definition
%
Wind Dir Definition
10's deg

Wind Spd Definition
km/h
Visibility Definition
km
Stn Press Definition
kPa
Hmdx Definition


Wind Chill Definition


Weather Definition


TIME
00:00 Legend Double Dagger -5.2 -6.6 90 31 8 16.1 99.77   -9 LegendNANA
01:00 Legend Double Dagger -5.2 -6.6 90 28 5 16.1 99.79   -7 LegendNANA
02:00 Legend Double Dagger -4.8 -7.4 82   0 16.1 99.83     LegendNANA
03:00 Legend Double Dagger -4.7 -7.2 83   0 16.1 99.84     LegendNANA
04:00 Legend Double Dagger -5.1 -6.4 91 29 5 16.1 99.86   -7 LegendNANA
05:00 Legend Double Dagger -5.1 -7.2 86 30 4 16.1 99.86   -7 LegendNANA
06:00 Legend Double Dagger -4.8 -6.3 89 11 4 16.1 99.89   -7 LegendNANA
07:00 Legend Double Dagger -5.0 -6.3 91 34 5 16.1 99.93   -7 Snow
08:00 Legend Double Dagger -4.9 -5.9 93   0 4.8 99.95     Snow
09:00 Legend Double Dagger -5.2 -5.9 95 3 8 9.7 99.96   -9 Snow
10:00 Legend Double Dagger -4.7 -5.5 94   0 6.4 99.96     Snow
11:00 Legend Double Dagger -5.1 -5.8 95 33 8 14.5 99.97   -9 LegendNANA
12:00 Legend Double Dagger -4.5 -5.6 92 29 9 16.1 99.99   -8 LegendNANA
13:00 Legend Double Dagger -4.0 -5.3 91 31 9 16.1 100.02   -8 LegendNANA
14:00 Legend Double Dagger -4.2 -5.9 88 35 11 16.1 100.04   -9 LegendNANA
15:00 Legend Double Dagger -4.5 -6.1 89 33 9 16.1 100.04   -8 LegendNANA
16:00 Legend Double Dagger -4.8 -5.9 92 36 8 16.1 100.05   -8 LegendNANA
17:00 Legend Double Dagger -4.8 -6.3 89 32 8 16.1 100.03   -8 LegendNANA
18:00 Legend Double Dagger -5.6 -6.4 94 30 8 16.1 100.02   -9 LegendNANA
19:00 Legend Double Dagger -5.1 -5.9 94 35 11 16.1 100.03   -10 LegendNANA
20:00 Legend Double Dagger -4.8 -5.8 93 33 17 16.1 100.01   -11 LegendNANA
21:00 Legend Double Dagger -5.0 -6.4 90 32 18 16.1 99.98   -11 LegendNANA
22:00 Legend Double Dagger -5.2 -6.3 92 31 17 16.1 99.98   -11 LegendNANA
23:00 Legend Double Dagger -5.2 -6.3 92 30 21 16.1 99.95   -12 LegendNANA

Notes on Data Quality.

Legend

  • E = Estimated
  • M = Missing
  • NA = Not Available
  • ‡ = Partner data that is not subject to review by the National Climate Archives
Date modified: